Time,TemperatureF,DewpointF,PressureIn,WindDirection,WindDirectionDegrees,WindSpeedMPH,WindSpeedGustMPH,Humidity,HourlyPrecipIn,Conditions,Clouds,dailyrainin,SolarRadiationWatts/m^2,SoftwareType,DateUTC
2013-03-04 00:00:00,25.1,20.1,29.78,WNW,291,6.0,8.0,81,0.00,,---,0.02,0.00,VWS V14.01,2013-03-04 05:00:00,
2013-03-04 00:05:00,25.1,20.1,29.78,SSW,210,3.0,7.0,81,0.00,,---,0.00,0.00,VWS V14.01,2013-03-04 05:05:00,
2013-03-04 00:10:00,25.1,20.1,29.78,NNE,17,0.0,7.0,81,0.00,,---,0.00,0.00,VWS V14.01,2013-03-04 05:10:00,
2013-03-04 00:15:00,25.1,20.1,29.78,WSW,250,2.0,7.0,81,0.00,,---,0.00,0.00,VWS V14.01,2013-03-04 05:15:00,
2013-03-04 00:20:00,25.0,20.0,29.78,NNW,334,0.0,7.0,81,0.00,,---,0.00,0.00,VWS V14.01,2013-03-04 05:20:00,
2013-03-04 00:25:00,25.0,20.3,29.78,NNW,334,0.0,7.0,82,0.00,,---,0.00,0.00,VWS V14.01,2013-03-04 05:25:00,
2013-03-04 00:30:00,25.0,20.0,29.78,West,274,0.0,7.0,81,0.00,,---,0.00,0.00,VWS V14.01,2013-03-04 05:30:00,
2013-03-04 00:35:00,25.0,20.3,29.78,East,91,0.0,5.0,82,0.00,,---,0.00,0.00,VWS V14.01,2013-03-04 05:35:00,
2013-03-04 00:40:00,25.0,20.0,29.78,NNE,12,0.0,7.0,81,0.00,,---,0.00,0.00,VWS V14.01,2013-03-04 05:40:00,
2013-03-04 00:45:00,25.0,20.3,29.78,West,270,5.0,7.0,82,0.00,,---,0.00,0.00,VWS V14.01,2013-03-04 05:45:00,
2013-03-04 00:50:00,25.0,20.3,29.78,West,281,0.0,7.0,82,0.00,,---,0.00,0.00,VWS V14.01,2013-03-04 05:50:00,
2013-03-04 00:55:00,25.0,20.3,29.78,West,281,0.0,7.0,82,0.00,,---,0.00,0.00,VWS V14.01,2013-03-04 05:55:00,
2013-03-04 01:00:00,25.0,20.3,29.78,NNW,331,1.0,7.0,82,0.00,,---,0.00,0.00,VWS V14.01,2013-03-04 06:00:00,
2013-03-04 01:05:00,25.0,20.3,29.78,NNW,331,0.0,2.0,82,0.00,,---,0.00,0.00,VWS V14.01,2013-03-04 06:05:00,
2013-03-04 01:10:00,25.0,20.3,29.78,NW,323,0.0,4.0,82,0.00,,---,0.00,0.00,VWS V14.01,2013-03-04 06:10:00,
2013-03-04 01:15:00,25.1,20.4,29.78,WSW,244,0.0,4.0,82,0.00,,---,0.00,0.00,VWS V14.01,2013-03-04 06:15:00,
2013-03-04 01:20:00,25.1,20.4,29.78,WSW,244,0.0,4.0,82,0.00,,---,0.00,0.00,VWS V14.01,2013-03-04 06:20:00,
2013-03-04 01:25:00,25.0,20.3,29.78,WSW,244,0.0,4.0,82,0.00,,---,0.00,0.00,VWS V14.01,2013-03-04 06:25:00,
2013-03-04 01:30:00,25.0,20.3,29.78,North,10,0.0,4.0,82,0.00,,---,0.00,0.00,VWS V14.01,2013-03-04 06:30:00,
2013-03-04 01:35:00,25.0,20.3,29.78,North,10,0.0,0.0,82,0.00,,---,0.00,0.00,VWS V14.01,2013-03-04 06:35:00,
2013-03-04 01:40:00,25.0,20.3,29.78,West,264,0.0,3.0,82,0.00,,---,0.00,0.00,VWS V14.01,2013-03-04 06:40:00,
2013-03-04 01:45:00,25.0,20.6,29.78,NNE,14,2.0,4.0,83,0.00,,---,0.00,0.00,VWS V14.01,2013-03-04 06:45:00,
2013-03-04 01:50:00,25.0,20.6,29.78,NNE,25,0.0,4.0,83,0.00,,---,0.00,0.00,VWS V14.01,2013-03-04 06:50:00,
2013-03-04 01:55:00,25.1,20.7,29.78,NNE,25,0.0,4.0,83,0.00,,---,0.00,0.00,VWS V14.01,2013-03-04 06:55:00,
2013-03-04 02:00:00,25.1,20.7,29.78,NW,309,0.0,4.0,83,0.00,,---,0.00,0.00,VWS V14.01,2013-03-04 07:00:00,
2013-03-04 02:05:00,25.0,20.6,29.78,NNW,338,0.0,5.0,83,0.00,,---,0.00,0.00,VWS V14.01,2013-03-04 07:05:00,
2013-03-04 02:10:00,25.0,20.6,29.78,North,355,0.0,5.0,83,0.00,,---,0.00,0.00,VWS V14.01,2013-03-04 07:10:00,
2013-03-04 02:15:00,25.0,20.9,29.78,West,280,0.0,5.0,84,0.00,,---,0.00,0.00,VWS V14.01,2013-03-04 07:15:00,
2013-03-04 02:20:00,25.0,20.6,29.78,West,280,0.0,5.0,83,0.00,,---,0.00,0.00,VWS V14.01,2013-03-04 07:20:00,
2013-03-04 02:25:00,25.0,20.9,29.78,NNW,344,0.0,5.0,84,0.00,,---,0.00,0.00,VWS V14.01,2013-03-04 07:25:00,
2013-03-04 02:30:00,25.0,20.9,29.78,North,355,0.0,5.0,84,0.00,,---,0.00,0.00,VWS V14.01,2013-03-04 07:30:00,
2013-03-04 02:35:00,25.0,20.9,29.78,West,281,0.0,7.0,84,0.00,,---,0.00,0.00,VWS V14.01,2013-03-04 07:35:00,
2013-03-04 02:40:00,25.1,21.0,29.78,West,281,0.0,7.0,84,0.00,,---,0.00,0.00,VWS V14.01,2013-03-04 07:40:00,
2013-03-04 02:45:00,25.1,21.0,29.78,West,281,0.0,7.0,84,0.00,,---,0.00,0.00,VWS V14.01,2013-03-04 07:45:00,
2013-03-04 02:49:00,25.1,21.0,29.78,ESE,119,0.0,7.0,84,0.00,,---,0.00,0.00,VWS V14.01,2013-03-04 07:49:00,
2013-03-04 02:54:00,25.1,21.0,29.78,NE,42,0.0,7.0,84,0.00,,---,0.00,0.00,VWS V14.01,2013-03-04 07:54:00,
2013-03-04 02:59:00,25.1,21.0,29.79,NE,42,0.0,7.0,84,0.00,,---,0.00,0.00,VWS V14.01,2013-03-04 07:59:00,
2013-03-04 03:00:00,25.2,21.0,29.79,WNW,283,3.0,5.0,84,0.00,,---,0.00,0.00,VWS V14.01,2013-03-04 08:00:00,
2013-03-04 03:04:00,25.1,21.0,29.78,WNW,294,0.0,2.0,84,0.00,,---,0.00,0.00,VWS V14.01,2013-03-04 08:04:00,
2013-03-04 03:09:00,25.1,21.0,29.78,WNW,290,2.0,2.0,84,0.00,,---,0.00,0.00,VWS V14.01,2013-03-04 08:09:00,
2013-03-04 03:14:00,25.2,21.0,29.78,NW,305,0.0,5.0,84,0.00,,---,0.00,0.00,VWS V14.01,2013-03-04 08:14:00,
2013-03-04 03:19:00,25.2,21.0,29.79,SE,132,0.0,5.0,84,0.00,,---,0.00,0.00,VWS V14.01,2013-03-04 08:19:00,
2013-03-04 03:24:00,25.1,21.0,29.79,WNW,302,1.0,6.0,84,0.00,,---,0.00,0.00,VWS V14.01,2013-03-04 08:24:00,
2013-03-04 03:29:00,25.2,21.0,29.79,West,265,0.0,6.0,84,0.00,,---,0.00,0.00,VWS V14.01,2013-03-04 08:29:00,
2013-03-04 03:30:00,25.3,21.1,29.80,NW,304,0.0,4.0,84,0.00,,---,0.00,0.00,VWS V14.01,2013-03-04 08:30:00,
2013-03-04 03:34:00,25.2,21.0,29.79,West,271,1.0,5.0,84,0.00,,---,0.00,0.00,VWS V14.01,2013-03-04 08:34:00,
2013-03-04 03:39:00,25.2,21.3,29.79,WNW,283,0.0,5.0,85,0.00,,---,0.00,0.00,VWS V14.01,2013-03-04 08:39:00,
2013-03-04 03:44:00,25.2,21.3,29.79,WNW,283,0.0,5.0,85,0.00,,---,0.00,0.00,VWS V14.01,2013-03-04 08:44:00,
2013-03-04 03:49:00,25.2,21.3,29.79,WNW,283,0.0,5.0,85,0.00,,---,0.00,0.00,VWS V14.01,2013-03-04 08:49:00,
2013-03-04 03:54:00,25.2,21.3,29.79,WNW,283,0.0,5.0,85,0.00,,---,0.00,0.00,VWS V14.01,2013-03-04 08:54:00,
2013-03-04 03:59:00,25.2,21.0,29.79,WNW,283,0.0,5.0,84,0.00,,---,0.00,0.00,VWS V14.01,2013-03-04 08:59:00,
2013-03-04 04:00:00,25.6,21.5,29.80,West,278,0.0,5.0,84,0.00,,---,0.00,0.00,VWS V14.01,2013-03-04 09:00:00,
2013-03-04 04:04:00,25.2,21.0,29.79,WNW,283,0.0,3.0,84,0.00,,---,0.00,0.00,VWS V14.01,2013-03-04 09:04:00,
2013-03-04 04:09:00,25.2,21.0,29.79,WNW,283,0.0,3.0,84,0.00,,---,0.00,0.00,VWS V14.01,2013-03-04 09:09:00,
2013-03-04 04:14:00,25.2,21.0,29.79,NE,41,0.0,3.0,84,0.00,,---,0.00,0.00,VWS V14.01,2013-03-04 09:14:00,
2013-03-04 04:19:00,25.2,21.0,29.79,WNW,292,0.0,4.0,84,0.00,,---,0.00,0.00,VWS V14.01,2013-03-04 09:19:00,
2013-03-04 04:24:00,25.2,21.0,29.80,NW,304,1.0,4.0,84,0.00,,---,0.00,0.00,VWS V14.01,2013-03-04 09:24:00,
2013-03-04 04:29:00,25.3,21.1,29.80,NW,304,0.0,4.0,84,0.00,,---,0.00,0.00,VWS V14.01,2013-03-04 09:29:00,
2013-03-04 04:30:00,25.8,21.9,29.80,West,280,0.0,4.0,85,0.00,,---,0.00,0.00,VWS V14.01,2013-03-04 09:30:00,
2013-03-04 04:34:00,25.3,21.1,29.80,NE,46,4.0,4.0,84,0.00,,---,0.00,0.00,VWS V14.01,2013-03-04 09:34:00,
2013-03-04 04:39:00,25.4,21.2,29.80,South,175,2.0,4.0,84,0.00,,---,0.00,0.00,VWS V14.01,2013-03-04 09:39:00,
2013-03-04 04:44:00,25.4,21.2,29.79,WSW,252,0.0,4.0,84,0.00,,---,0.00,0.00,VWS V14.01,2013-03-04 09:44:00,
2013-03-04 04:49:00,25.4,21.2,29.80,WSW,251,0.0,5.0,84,0.00,,---,0.00,0.00,VWS V14.01,2013-03-04 09:49:00,
2013-03-04 04:54:00,25.5,21.4,29.80,WSW,251,0.0,5.0,84,0.00,,---,0.00,0.00,VWS V14.01,2013-03-04 09:54:00,
2013-03-04 05:00:00,25.6,21.5,29.80,West,278,0.0,5.0,84,0.00,,---,0.00,0.00,VWS V14.01,2013-03-04 10:00:00,
2013-03-04 05:05:00,25.6,21.5,29.79,West,278,0.0,2.0,84,0.00,,---,0.00,0.00,VWS V14.01,2013-03-04 10:05:00,
2013-03-04 05:10:00,25.7,21.8,29.80,West,278,0.0,2.0,85,0.00,,---,0.00,0.00,VWS V14.01,2013-03-04 10:10:00,
2013-03-04 05:15:00,25.7,21.8,29.80,West,278,0.0,2.0,85,0.00,,---,0.00,0.00,VWS V14.01,2013-03-04 10:15:00,
2013-03-04 05:20:00,25.7,21.8,29.80,West,280,0.0,4.0,85,0.00,,---,0.00,0.00,VWS V14.01,2013-03-04 10:20:00,
2013-03-04 05:25:00,25.8,21.9,29.80,West,280,0.0,4.0,85,0.00,,---,0.00,0.00,VWS V14.01,2013-03-04 10:25:00,
2013-03-04 05:30:00,25.8,21.9,29.80,West,280,0.0,4.0,85,0.00,,---,0.00,0.00,VWS V14.01,2013-03-04 10:30:00,
2013-03-04 05:35:00,25.8,21.9,29.80,West,280,0.0,0.0,85,0.00,,---,0.00,0.00,VWS V14.01,2013-03-04 10:35:00,
2013-03-04 05:40:00,25.9,22.0,29.80,WNW,296,0.0,4.0,85,0.00,,---,0.00,0.00,VWS V14.01,2013-03-04 10:40:00,
2013-03-04 05:45:00,25.9,22.3,29.80,WNW,296,0.0,4.0,86,0.00,,---,0.00,0.00,VWS V14.01,2013-03-04 10:45:00,
2013-03-04 05:50:00,26.0,22.1,29.80,WNW,296,0.0,4.0,85,0.00,,---,0.00,0.00,VWS V14.01,2013-03-04 10:50:00,
2013-03-04 05:55:00,26.0,22.1,29.80,WNW,296,1.0,4.0,85,0.00,,---,0.00,0.00,VWS V14.01,2013-03-04 10:55:00,
2013-03-04 06:00:00,26.0,22.1,29.80,WNW,290,0.0,4.0,85,0.00,,---,0.00,0.00,VWS V14.01,2013-03-04 11:00:00,
2013-03-04 06:05:00,26.0,22.1,29.80,NW,318,0.0,4.0,85,0.00,,---,0.00,0.00,VWS V14.01,2013-03-04 11:05:00,
2013-03-04 06:10:00,26.0,22.4,29.80,ENE,68,0.0,4.0,86,0.00,,---,0.00,0.00,VWS V14.01,2013-03-04 11:10:00,
2013-03-04 06:15:00,26.1,22.5,29.80,WNW,294,0.0,4.0,86,0.00,,---,0.00,0.00,VWS V14.01,2013-03-04 11:15:00,
2013-03-04 06:20:00,26.1,22.5,29.80,WNW,294,0.0,4.0,86,0.00,,---,0.00,0.00,VWS V14.01,2013-03-04 11:20:00,
2013-03-04 06:25:00,26.1,22.5,29.80,North,350,0.0,4.0,86,0.00,,---,0.00,0.00,VWS V14.01,2013-03-04 11:25:00,
2013-03-04 06:30:00,26.1,22.5,29.80,North,350,0.0,4.0,86,0.00,,---,0.00,0.00,VWS V14.01,2013-03-04 11:30:00,
2013-03-04 06:35:00,26.2,22.6,29.80,NW,318,0.0,6.0,86,0.00,,---,0.00,0.00,VWS V14.01,2013-03-04 11:35:00,
2013-03-04 06:40:00,26.2,22.6,29.80,NW,322,0.0,6.0,86,0.00,,---,0.00,0.00,VWS V14.01,2013-03-04 11:40:00,
2013-03-04 06:45:00,26.3,23.0,29.80,WSW,238,1.0,6.0,87,0.00,,---,0.00,0.00,VWS V14.01,2013-03-04 11:45:00,
2013-03-04 06:50:00,26.3,22.7,29.80,SSW,202,4.0,6.0,86,0.00,,---,0.00,0.00,VWS V14.01,2013-03-04 11:50:00,
2013-03-04 06:55:00,26.3,22.7,29.80,ENE,63,0.0,6.0,86,0.00,,---,0.00,0.00,VWS V14.01,2013-03-04 11:55:00,
2013-03-04 07:00:00,26.3,22.7,29.80,ENE,63,0.0,6.0,86,0.00,,---,0.00,5.00,VWS V14.01,2013-03-04 12:00:00,
2013-03-04 07:05:00,26.4,23.1,29.80,ENE,63,0.0,0.0,87,0.00,,---,0.00,14.00,VWS V14.01,2013-03-04 12:05:00,
2013-03-04 07:10:00,26.4,22.8,29.80,ENE,63,0.0,0.0,86,0.00,,---,0.00,16.00,VWS V14.01,2013-03-04 12:10:00,
2013-03-04 07:15:00,26.5,22.9,29.80,SW,228,0.0,4.0,86,0.00,,---,0.00,16.00,VWS V14.01,2013-03-04 12:15:00,
2013-03-04 07:20:00,26.5,22.9,29.80,SE,129,1.0,4.0,86,0.00,,---,0.00,25.00,VWS V14.01,2013-03-04 12:20:00,
2013-03-04 07:25:00,26.5,22.9,29.80,NW,304,1.0,4.0,86,0.00,,---,0.00,28.00,VWS V14.01,2013-03-04 12:25:00,
2013-03-04 07:30:00,26.7,22.8,29.80,West,273,1.0,4.0,85,0.00,,---,0.00,37.00,VWS V14.01,2013-03-04 12:30:00,
2013-03-04 07:35:00,26.9,23.0,29.80,South,170,3.0,3.0,85,0.00,,---,0.00,44.00,VWS V14.01,2013-03-04 12:35:00,
2013-03-04 07:40:00,27.1,22.9,29.80,WNW,286,2.0,3.0,84,0.00,,---,0.00,49.00,VWS V14.01,2013-03-04 12:40:00,
2013-03-04 07:45:00,27.3,22.8,29.81,WNW,294,0.0,3.0,83,0.00,,---,0.00,53.00,VWS V14.01,2013-03-04 12:45:00,
2013-03-04 07:50:00,27.4,22.6,29.80,NW,306,0.0,9.0,82,0.00,,---,0.00,63.00,VWS V14.01,2013-03-04 12:50:00,
2013-03-04 07:55:00,27.5,22.7,29.80,WSW,252,2.0,9.0,82,0.00,,---,0.00,72.00,VWS V14.01,2013-03-04 12:55:00,
2013-03-04 08:00:00,27.7,22.6,29.81,West,279,0.0,9.0,81,0.00,,---,0.00,102.00,VWS V14.01,2013-03-04 13:00:00,
2013-03-04 08:05:00,27.8,22.7,29.80,NW,315,0.0,6.0,81,0.00,,---,0.00,139.00,VWS V14.01,2013-03-04 13:05:00,
2013-03-04 08:10:00,28.0,22.6,29.80,NNW,338,2.0,6.0,80,0.00,,---,0.00,144.00,VWS V14.01,2013-03-04 13:10:00,
2013-03-04 08:15:00,28.1,22.7,29.80,WSW,237,6.0,10.0,80,0.00,,---,0.00,153.00,VWS V14.01,2013-03-04 13:15:00,
2013-03-04 08:20:00,28.1,22.4,29.80,ENE,59,3.0,14.0,79,0.00,,---,0.00,141.00,VWS V14.01,2013-03-04 13:20:00,
2013-03-04 08:25:00,28.3,22.6,29.80,North,351,4.0,14.0,79,0.00,,---,0.00,132.00,VWS V14.01,2013-03-04 13:25:00,
2013-03-04 08:30:00,28.3,22.9,29.80,South,180,2.0,14.0,80,0.00,,---,0.00,146.00,VWS V14.01,2013-03-04 13:30:00,
2013-03-04 08:35:00,28.5,23.1,29.80,NNE,12,0.0,3.0,80,0.00,,---,0.00,141.00,VWS V14.01,2013-03-04 13:35:00,
2013-03-04 08:40:00,28.5,22.8,29.80,NW,321,2.0,9.0,79,0.00,,---,0.00,148.00,VWS V14.01,2013-03-04 13:40:00,
2013-03-04 08:45:00,28.5,22.8,29.80,WNW,296,0.0,9.0,79,0.00,,---,0.00,151.00,VWS V14.01,2013-03-04 13:45:00,
2013-03-04 08:50:00,28.5,22.8,29.80,NE,43,3.0,9.0,79,0.00,,---,0.00,146.00,VWS V14.01,2013-03-04 13:50:00,
2013-03-04 08:55:00,28.5,22.8,29.80,NNW,333,0.0,9.0,79,0.00,,---,0.00,197.00,VWS V14.01,2013-03-04 13:55:00,
2013-03-04 08:59:00,28.8,23.4,29.80,SW,219,2.0,9.0,80,0.00,,---,0.00,206.00,VWS V14.01,2013-03-04 13:59:00,
2013-03-04 09:00:00,28.8,23.1,29.81,WNW,294,0.0,9.0,79,0.00,,---,0.00,139.00,VWS V14.01,2013-03-04 14:00:00,
2013-03-04 09:04:00,29.0,23.3,29.80,NW,306,7.0,7.0,79,0.00,,---,0.00,135.00,VWS V14.01,2013-03-04 14:04:00,
2013-03-04 09:09:00,29.0,23.3,29.80,SSE,158,0.0,7.0,79,0.00,,---,0.00,218.00,VWS V14.01,2013-03-04 14:09:00,
2013-03-04 09:14:00,29.2,23.5,29.80,West,269,3.0,7.0,79,0.00,,---,0.00,206.00,VWS V14.01,2013-03-04 14:14:00,
2013-03-04 09:19:00,29.3,23.6,29.80,West,273,3.0,8.0,79,0.00,,---,0.00,160.00,VWS V14.01,2013-03-04 14:19:00,
2013-03-04 09:24:00,29.1,23.4,29.80,West,273,0.0,8.0,79,0.00,,---,0.00,114.00,VWS V14.01,2013-03-04 14:24:00,
2013-03-04 09:30:00,29.0,23.3,29.81,ENE,66,0.0,8.0,79,0.00,,---,0.00,111.00,VWS V14.01,2013-03-04 14:30:00,
2013-03-04 09:34:00,28.9,23.5,29.80,ENE,66,0.0,1.0,80,0.00,,---,0.00,98.00,VWS V14.01,2013-03-04 14:34:00,
2013-03-04 09:39:00,28.7,23.0,29.81,NW,325,0.0,2.0,79,0.00,,---,0.00,111.00,VWS V14.01,2013-03-04 14:39:00,
2013-03-04 09:44:00,28.7,23.3,29.80,SSE,163,0.0,9.0,80,0.00,,---,0.00,113.00,VWS V14.01,2013-03-04 14:44:00,
2013-03-04 09:49:00,28.7,23.3,29.81,NNW,340,0.0,9.0,80,0.00,,---,0.00,123.00,VWS V14.01,2013-03-04 14:49:00,
2013-03-04 09:54:00,28.7,23.0,29.81,NNW,340,0.0,9.0,79,0.00,,---,0.00,123.00,VWS V14.01,2013-03-04 14:54:00,
2013-03-04 09:59:00,28.9,23.2,29.81,WNW,294,0.0,9.0,79,0.00,,---,0.00,139.00,VWS V14.01,2013-03-04 14:59:00,
2013-03-04 10:00:00,30.1,23.8,29.80,WNW,296,0.0,9.0,77,0.00,,---,0.00,172.00,VWS V14.01,2013-03-04 15:00:00,
2013-03-04 10:04:00,29.0,23.0,29.81,WNW,288,0.0,5.0,78,0.00,,---,0.00,155.00,VWS V14.01,2013-03-04 15:04:00,
2013-03-04 10:10:00,29.2,23.5,29.80,SSW,210,0.0,5.0,79,0.00,,---,0.00,162.00,VWS V14.01,2013-03-04 15:10:00,
2013-03-04 10:15:00,29.2,22.9,29.81,WNW,295,5.0,7.0,77,0.00,,---,0.00,167.00,VWS V14.01,2013-03-04 15:15:00,
2013-03-04 10:20:00,29.3,23.0,29.80,WNW,292,8.0,8.0,77,0.00,,---,0.00,183.00,VWS V14.01,2013-03-04 15:20:00,
2013-03-04 10:25:00,29.3,23.0,29.80,WSW,248,3.0,12.0,77,0.00,,---,0.00,183.00,VWS V14.01,2013-03-04 15:25:00,
2013-03-04 10:30:00,29.5,23.2,29.80,North,11,3.0,12.0,77,0.00,,---,0.00,169.00,VWS V14.01,2013-03-04 15:30:00,
2013-03-04 10:35:00,29.4,22.8,29.80,East,96,0.0,9.0,76,0.00,,---,0.00,181.00,VWS V14.01,2013-03-04 15:35:00,
2013-03-04 10:40:00,29.5,22.9,29.80,West,265,1.0,9.0,76,0.00,,---,0.00,171.00,VWS V14.01,2013-03-04 15:40:00,
2013-03-04 10:45:00,29.7,23.4,29.80,NW,315,0.0,9.0,77,0.00,,---,0.00,172.00,VWS V14.01,2013-03-04 15:45:00,
2013-03-04 10:49:00,29.7,23.1,29.80,SW,227,0.0,9.0,76,0.00,,---,0.00,179.00,VWS V14.01,2013-03-04 15:49:00,
2013-03-04 10:54:00,29.9,23.3,29.80,WNW,294,0.0,9.0,76,0.00,,---,0.00,163.00,VWS V14.01,2013-03-04 15:54:00,
2013-03-04 10:59:00,30.1,23.8,29.80,WNW,296,0.0,9.0,77,0.00,,---,0.00,171.00,VWS V14.01,2013-03-04 15:59:00,
2013-03-04 11:00:00,30.1,23.8,29.80,WNW,296,0.0,9.0,77,0.00,,---,0.00,172.00,VWS V14.01,2013-03-04 16:00:00,
2013-03-04 11:04:00,30.2,23.2,29.80,WNW,302,0.0,12.0,75,0.00,,---,0.00,197.00,VWS V14.01,2013-03-04 16:04:00,
2013-03-04 11:09:00,30.3,23.3,29.80,NNW,348,0.0,12.0,75,0.00,,---,0.00,185.00,VWS V14.01,2013-03-04 16:09:00,
2013-03-04 11:14:00,30.3,23.3,29.80,WNW,298,4.0,12.0,75,0.00,,---,0.00,193.00,VWS V14.01,2013-03-04 16:14:00,
2013-03-04 11:19:00,30.2,23.2,29.80,South,175,0.0,12.0,75,0.00,,---,0.00,199.00,VWS V14.01,2013-03-04 16:19:00,
2013-03-04 11:24:00,30.1,22.8,29.80,WNW,298,0.0,12.0,74,0.00,,---,0.00,197.00,VWS V14.01,2013-03-04 16:24:00,
2013-03-04 11:29:00,30.2,23.2,29.80,WNW,300,5.0,12.0,75,0.00,,---,0.00,193.00,VWS V14.01,2013-03-04 16:29:00,
2013-03-04 11:30:00,31.8,23.8,29.79,SW,229,5.0,12.0,72,0.00,,---,0.00,274.00,VWS V14.01,2013-03-04 16:30:00,
2013-03-04 11:34:00,30.4,23.4,29.80,WNW,303,5.0,6.0,75,0.00,,---,0.00,192.00,VWS V14.01,2013-03-04 16:34:00,
2013-03-04 11:39:00,30.5,23.5,29.80,SW,228,0.0,9.0,75,0.00,,---,0.00,197.00,VWS V14.01,2013-03-04 16:39:00,
2013-03-04 11:44:00,30.6,23.3,29.80,WSW,245,0.0,9.0,74,0.00,,---,0.00,214.00,VWS V14.01,2013-03-04 16:44:00,
2013-03-04 11:49:00,30.8,23.5,29.80,NW,306,0.0,10.0,74,0.00,,---,0.00,213.00,VWS V14.01,2013-03-04 16:49:00,
2013-03-04 11:54:00,30.9,23.6,29.80,WSW,238,4.0,10.0,74,0.00,,---,0.00,200.00,VWS V14.01,2013-03-04 16:54:00,
2013-03-04 11:59:00,31.0,24.0,29.80,SW,225,3.0,10.0,75,0.00,,---,0.00,218.00,VWS V14.01,2013-03-04 16:59:00,
2013-03-04 12:00:00,32.7,24.4,29.79,West,260,4.0,12.0,71,0.00,,---,0.00,297.00,VWS V14.01,2013-03-04 17:00:00,
2013-03-04 12:04:00,30.9,23.6,29.80,NNW,338,0.0,12.0,74,0.00,,---,0.00,246.00,VWS V14.01,2013-03-04 17:04:00,
2013-03-04 12:10:00,31.2,23.9,29.80,WNW,284,0.0,12.0,74,0.00,,---,0.00,243.00,VWS V14.01,2013-03-04 17:10:00,
2013-03-04 12:15:00,31.6,24.6,29.80,ENE,59,1.0,12.0,75,0.00,,---,0.00,278.00,VWS V14.01,2013-03-04 17:15:00,
2013-03-04 12:20:00,31.7,24.4,29.79,WNW,296,1.0,12.0,74,0.00,,---,0.00,295.00,VWS V14.01,2013-03-04 17:20:00,
2013-03-04 12:25:00,31.8,24.1,29.79,WSW,252,12.0,12.0,73,0.00,,---,0.00,348.00,VWS V14.01,2013-03-04 17:25:00,
2013-03-04 12:30:00,31.7,23.7,29.79,NE,55,4.0,12.0,72,0.00,,---,0.00,274.00,VWS V14.01,2013-03-04 17:30:00,
2013-03-04 12:35:00,31.9,24.2,29.79,SSE,150,0.0,10.0,73,0.00,,---,0.00,339.00,VWS V14.01,2013-03-04 17:35:00,
2013-03-04 12:40:00,32.1,24.1,29.79,SW,233,1.0,10.0,72,0.00,,---,0.00,346.00,VWS V14.01,2013-03-04 17:40:00,
2013-03-04 12:45:00,32.2,23.9,29.79,SW,235,7.0,12.0,71,0.00,,---,0.00,330.00,VWS V14.01,2013-03-04 17:45:00,
2013-03-04 12:50:00,32.4,24.1,29.79,WNW,300,4.0,12.0,71,0.00,,---,0.00,369.00,VWS V14.01,2013-03-04 17:50:00,
2013-03-04 12:55:00,32.6,24.6,29.79,ESE,107,0.0,12.0,72,0.00,,---,0.00,285.00,VWS V14.01,2013-03-04 17:55:00,
2013-03-04 13:00:00,32.7,24.4,29.79,West,281,5.0,12.0,71,0.00,,---,0.00,297.00,VWS V14.01,2013-03-04 18:00:00,
2013-03-04 13:05:00,32.7,24.4,29.78,West,259,5.0,5.0,71,0.00,,---,0.00,281.00,VWS V14.01,2013-03-04 18:05:00,
2013-03-04 13:10:00,32.6,24.2,29.78,WSW,258,2.0,5.0,71,0.00,,---,0.00,281.00,VWS V14.01,2013-03-04 18:10:00,
2013-03-04 13:15:00,32.7,24.4,29.78,ENE,65,0.0,10.0,71,0.00,,---,0.00,269.00,VWS V14.01,2013-03-04 18:15:00,
2013-03-04 13:20:00,32.6,23.9,29.78,NE,44,4.0,10.0,70,0.00,,---,0.00,255.00,VWS V14.01,2013-03-04 18:20:00,
2013-03-04 13:25:00,32.5,24.2,29.79,ENE,58,0.0,10.0,71,0.00,,---,0.00,251.00,VWS V14.01,2013-03-04 18:25:00,
2013-03-04 13:29:00,32.3,24.0,29.78,SSW,202,0.0,10.0,71,0.00,,---,0.00,225.00,VWS V14.01,2013-03-04 18:29:00,
2013-03-04 13:30:00,32.3,24.0,29.78,SSW,202,0.0,10.0,71,0.00,,---,0.00,236.00,VWS V14.01,2013-03-04 18:30:00,
2013-03-04 13:35:00,32.4,24.4,29.78,NE,55,4.0,7.0,72,0.00,,---,0.00,230.00,VWS V14.01,2013-03-04 18:35:00,
2013-03-04 13:40:00,32.3,24.3,29.78,NW,304,0.0,8.0,72,0.00,,---,0.00,220.00,VWS V14.01,2013-03-04 18:40:00,
2013-03-04 13:45:00,32.4,24.4,29.78,West,263,6.0,8.0,72,0.00,,---,0.00,195.00,VWS V14.01,2013-03-04 18:45:00,
2013-03-04 13:50:00,32.5,24.2,29.78,NNW,341,0.0,15.0,71,0.00,,---,0.00,204.00,VWS V14.01,2013-03-04 18:50:00,
2013-03-04 13:55:00,32.6,24.2,29.78,NNE,27,1.0,15.0,71,0.00,,---,0.00,192.00,VWS V14.01,2013-03-04 18:55:00,
2013-03-04 14:00:00,32.6,23.9,29.78,WSW,243,0.0,15.0,70,0.00,,---,0.00,192.00,VWS V14.01,2013-03-04 19:00:00,
2013-03-04 14:05:00,32.6,24.6,29.78,NNW,332,3.0,6.0,72,0.00,,---,0.00,167.00,VWS V14.01,2013-03-04 19:05:00,
2013-03-04 14:12:00,32.1,23.8,29.79,NW,315,1.0,8.0,71,0.00,,---,0.00,183.00,VWS V14.01,2013-03-04 19:12:00,
2013-03-04 14:17:00,31.9,24.2,29.79,NW,311,3.0,8.0,73,0.00,,---,0.00,200.00,VWS V14.01,2013-03-04 19:17:00,
2013-03-04 14:22:00,31.8,24.5,29.79,WNW,286,0.0,8.0,74,0.00,,---,0.00,171.00,VWS V14.01,2013-03-04 19:22:00,
2013-03-04 14:27:00,31.9,24.2,29.79,ENE,66,1.0,10.0,73,0.00,,---,0.00,183.00,VWS V14.01,2013-03-04 19:27:00,
2013-03-04 14:30:00,30.7,23.7,29.81,WSW,248,0.0,9.0,75,0.00,,---,0.00,98.00,VWS V14.01,2013-03-04 19:30:00,
2013-03-04 14:32:00,31.7,24.0,29.79,ENE,73,1.0,5.0,73,0.00,,---,0.00,149.00,VWS V14.01,2013-03-04 19:32:00,
2013-03-04 14:37:00,31.7,24.4,29.79,East,87,0.0,6.0,74,0.00,,---,0.00,146.00,VWS V14.01,2013-03-04 19:37:00,
2013-03-04 14:42:00,31.7,24.0,29.80,SW,236,0.0,6.0,73,0.00,,---,0.00,158.00,VWS V14.01,2013-03-04 19:42:00,
2013-03-04 14:47:00,31.7,24.4,29.80,NW,312,3.0,6.0,74,0.00,,---,0.00,139.00,VWS V14.01,2013-03-04 19:47:00,
2013-03-04 14:52:00,31.2,23.6,29.80,NNE,28,2.0,10.0,73,0.00,,---,0.00,142.00,VWS V14.01,2013-03-04 19:52:00,
2013-03-04 14:57:00,31.2,23.9,29.80,NNE,15,0.0,10.0,74,0.00,,---,0.00,130.00,VWS V14.01,2013-03-04 19:57:00,
2013-03-04 15:00:00,30.8,23.5,29.81,South,187,2.0,15.0,74,0.00,,---,0.00,93.00,VWS V14.01,2013-03-04 20:00:00,
2013-03-04 15:02:00,31.1,23.8,29.80,West,281,0.0,3.0,74,0.00,,---,0.00,134.00,VWS V14.01,2013-03-04 20:02:00,
2013-03-04 15:07:00,31.0,23.7,29.80,NNE,16,3.0,9.0,74,0.00,,---,0.00,111.00,VWS V14.01,2013-03-04 20:07:00,
2013-03-04 15:12:00,30.7,23.4,29.81,NW,319,0.0,9.0,74,0.00,,---,0.00,98.00,VWS V14.01,2013-03-04 20:12:00,
2013-03-04 15:17:00,30.6,23.6,29.81,ENE,70,5.0,9.0,75,0.00,,---,0.00,109.00,VWS V14.01,2013-03-04 20:17:00,
2013-03-04 15:22:00,30.6,23.6,29.81,NNW,348,0.0,9.0,75,0.00,,---,0.00,105.00,VWS V14.01,2013-03-04 20:22:00,
2013-03-04 15:27:00,30.6,23.6,29.81,WSW,248,0.0,9.0,75,0.00,,---,0.00,98.00,VWS V14.01,2013-03-04 20:27:00,
2013-03-04 15:30:00,30.7,23.1,29.82,NNW,348,0.0,8.0,73,0.00,,---,0.00,60.00,VWS V14.01,2013-03-04 20:30:00,
2013-03-04 15:32:00,30.7,23.7,29.81,SE,126,3.0,3.0,75,0.00,,---,0.00,98.00,VWS V14.01,2013-03-04 20:32:00,
2013-03-04 15:37:00,30.7,23.4,29.81,NNE,17,0.0,4.0,74,0.00,,---,0.00,91.00,VWS V14.01,2013-03-04 20:37:00,
2013-03-04 15:42:00,30.7,23.7,29.81,WNW,298,15.0,15.0,75,0.00,,---,0.00,91.00,VWS V14.01,2013-03-04 20:42:00,
2013-03-04 15:47:00,30.7,23.4,29.81,NNE,33,0.0,15.0,74,0.00,,---,0.00,90.00,VWS V14.01,2013-03-04 20:47:00,
2013-03-04 15:52:00,30.9,23.9,29.81,North,5,1.0,15.0,75,0.00,,---,0.00,102.00,VWS V14.01,2013-03-04 20:52:00,
2013-03-04 15:57:00,30.7,23.4,29.81,WSW,240,5.0,15.0,74,0.00,,---,0.00,93.00,VWS V14.01,2013-03-04 20:57:00,
2013-03-04 16:00:00,30.1,22.8,29.82,NW,320,0.0,7.0,74,0.00,,---,0.00,26.00,VWS V14.01,2013-03-04 21:00:00,
2013-03-04 16:02:00,30.8,23.5,29.81,ENE,78,0.0,4.0,74,0.00,,---,0.00,84.00,VWS V14.01,2013-03-04 21:02:00,
2013-03-04 16:07:00,30.8,23.5,29.81,WNW,285,0.0,7.0,74,0.00,,---,0.00,72.00,VWS V14.01,2013-03-04 21:07:00,
2013-03-04 16:12:00,30.8,23.2,29.81,North,5,1.0,8.0,73,0.00,,---,0.00,70.00,VWS V14.01,2013-03-04 21:12:00,
2013-03-04 16:17:00,30.8,23.2,29.82,West,259,4.0,8.0,73,0.00,,---,0.00,72.00,VWS V14.01,2013-03-04 21:17:00,
2013-03-04 16:22:00,30.8,23.2,29.82,North,9,0.0,8.0,73,0.00,,---,0.00,69.00,VWS V14.01,2013-03-04 21:22:00,
2013-03-04 16:27:00,30.7,23.1,29.82,East,92,2.0,8.0,73,0.00,,---,0.00,58.00,VWS V14.01,2013-03-04 21:27:00,
2013-03-04 16:30:00,29.7,22.8,29.84,WSW,239,0.0,5.0,75,0.00,,---,0.00,11.00,VWS V14.01,2013-03-04 21:30:00,
2013-03-04 16:32:00,30.6,23.0,29.82,WNW,284,3.0,4.0,73,0.00,,---,0.00,53.00,VWS V14.01,2013-03-04 21:32:00,
2013-03-04 16:37:00,30.4,23.1,29.82,North,355,2.0,7.0,74,0.00,,---,0.00,47.00,VWS V14.01,2013-03-04 21:37:00,
2013-03-04 16:42:00,30.3,23.0,29.82,NE,51,0.0,7.0,74,0.00,,---,0.00,46.00,VWS V14.01,2013-03-04 21:42:00,
2013-03-04 16:47:00,30.3,23.3,29.82,NE,34,0.0,7.0,75,0.00,,---,0.00,49.00,VWS V14.01,2013-03-04 21:47:00,
2013-03-04 16:52:00,30.2,23.2,29.82,NNE,28,1.0,7.0,75,0.00,,---,0.00,39.00,VWS V14.01,2013-03-04 21:52:00,
2013-03-04 16:57:00,30.1,22.8,29.83,WNW,302,0.0,7.0,74,0.00,,---,0.00,28.00,VWS V14.01,2013-03-04 21:57:00,
2013-03-04 17:00:00,29.4,22.5,29.85,NNE,25,2.0,6.0,75,0.00,,---,0.00,0.00,VWS V14.01,2013-03-04 22:00:00,
2013-03-04 17:02:00,30.0,22.7,29.83,NE,40,0.0,5.0,74,0.00,,---,0.00,26.00,VWS V14.01,2013-03-04 22:02:00,
2013-03-04 17:07:00,30.0,23.0,29.83,North,360,0.0,5.0,75,0.00,,---,0.00,19.00,VWS V14.01,2013-03-04 22:07:00,
2013-03-04 17:12:00,29.9,23.0,29.83,NNE,13,0.0,5.0,75,0.00,,---,0.00,21.00,VWS V14.01,2013-03-04 22:12:00,
2013-03-04 17:17:00,29.9,23.0,29.83,NNE,13,2.0,5.0,75,0.00,,---,0.00,18.00,VWS V14.01,2013-03-04 22:17:00,
2013-03-04 17:22:00,29.8,22.9,29.83,South,191,0.0,5.0,75,0.00,,---,0.00,14.00,VWS V14.01,2013-03-04 22:22:00,
2013-03-04 17:27:00,29.8,22.9,29.84,ENE,72,0.0,5.0,75,0.00,,---,0.00,12.00,VWS V14.01,2013-03-04 22:27:00,
2013-03-04 17:30:00,29.2,22.9,29.86,NNE,32,0.0,6.0,77,0.00,,---,0.00,0.00,VWS V14.01,2013-03-04 22:30:00,
2013-03-04 17:32:00,29.7,22.8,29.84,WSW,239,0.0,0.0,75,0.00,,---,0.00,9.00,VWS V14.01,2013-03-04 22:32:00,
2013-03-04 17:37:00,29.7,22.8,29.84,NNE,27,2.0,5.0,75,0.00,,---,0.00,5.00,VWS V14.01,2013-03-04 22:37:00,
2013-03-04 17:42:00,29.7,22.8,29.84,North,360,0.0,5.0,75,0.00,,---,0.00,0.00,VWS V14.01,2013-03-04 22:42:00,
2013-03-04 17:47:00,29.6,22.7,29.85,NNE,19,0.0,5.0,75,0.00,,---,0.00,0.00,VWS V14.01,2013-03-04 22:47:00,
2013-03-04 17:52:00,29.5,22.6,29.85,West,264,0.0,6.0,75,0.00,,---,0.00,0.00,VWS V14.01,2013-03-04 22:52:00,
2013-03-04 17:57:00,29.4,22.5,29.85,WSW,252,0.0,6.0,75,0.00,,---,0.00,0.00,VWS V14.01,2013-03-04 22:57:00,
2013-03-04 18:00:00,29.2,22.6,29.87,North,349,0.0,6.0,76,0.00,,---,0.00,0.00,VWS V14.01,2013-03-04 23:00:00,
2013-03-04 18:02:00,29.4,22.5,29.85,West,271,2.0,2.0,75,0.00,,---,0.00,0.00,VWS V14.01,2013-03-04 23:02:00,
2013-03-04 18:07:00,29.3,22.7,29.86,WNW,288,0.0,2.0,76,0.00,,---,0.00,0.00,VWS V14.01,2013-03-04 23:07:00,
2013-03-04 18:12:00,29.3,22.7,29.86,North,360,0.0,2.0,76,0.00,,---,0.00,0.00,VWS V14.01,2013-03-04 23:12:00,
2013-03-04 18:17:00,29.2,22.6,29.86,ENE,71,0.0,2.0,76,0.00,,---,0.00,0.00,VWS V14.01,2013-03-04 23:17:00,
2013-03-04 18:22:00,29.2,22.6,29.86,WNW,298,0.0,6.0,76,0.00,,---,0.00,0.00,VWS V14.01,2013-03-04 23:22:00,
2013-03-04 18:27:00,29.2,22.6,29.86,NNE,32,0.0,6.0,76,0.00,,---,0.00,0.00,VWS V14.01,2013-03-04 23:27:00,
2013-03-04 18:30:00,29.0,22.7,29.88,North,355,0.0,6.0,77,0.00,,---,0.00,0.00,VWS V14.01,2013-03-04 23:30:00,
2013-03-04 18:32:00,29.2,22.6,29.86,NW,305,1.0,3.0,76,0.00,,---,0.00,0.00,VWS V14.01,2013-03-04 23:32:00,
2013-03-04 18:37:00,29.2,22.6,29.87,NW,305,0.0,3.0,76,0.00,,---,0.00,0.00,VWS V14.01,2013-03-04 23:37:00,
2013-03-04 18:42:00,29.2,22.6,29.87,North,355,0.0,6.0,76,0.00,,---,0.00,0.00,VWS V14.01,2013-03-04 23:42:00,
2013-03-04 18:47:00,29.2,22.9,29.87,North,355,0.0,6.0,77,0.00,,---,0.00,0.00,VWS V14.01,2013-03-04 23:47:00,
2013-03-04 18:52:00,29.2,22.6,29.87,WSW,252,4.0,6.0,76,0.00,,---,0.00,0.00,VWS V14.01,2013-03-04 23:52:00,
2013-03-04 18:57:00,29.2,22.6,29.87,NW,324,0.0,6.0,76,0.00,,---,0.00,0.00,VWS V14.01,2013-03-04 23:57:00,
2013-03-04 19:00:00,28.8,23.1,29.89,NNE,12,4.0,7.0,79,0.00,,---,0.00,0.00,VWS V14.01,2013-03-05 00:00:00,
2013-03-04 19:02:00,29.2,22.6,29.87,West,278,0.0,3.0,76,0.00,,---,0.00,0.00,VWS V14.01,2013-03-05 00:02:00,
2013-03-04 19:07:00,29.2,22.9,29.87,West,274,0.0,3.0,77,0.00,,---,0.00,0.00,VWS V14.01,2013-03-05 00:07:00,
2013-03-04 19:12:00,29.1,22.8,29.87,NNE,15,2.0,3.0,77,0.00,,---,0.00,0.00,VWS V14.01,2013-03-05 00:12:00,
2013-03-04 19:17:00,29.0,22.7,29.87,NW,304,0.0,3.0,77,0.00,,---,0.00,0.00,VWS V14.01,2013-03-05 00:17:00,
2013-03-04 19:22:00,29.0,22.7,29.88,North,351,0.0,3.0,77,0.00,,---,0.00,0.00,VWS V14.01,2013-03-05 00:22:00,
2013-03-04 19:27:00,29.0,22.7,29.88,North,5,0.0,3.0,77,0.00,,---,0.00,0.00,VWS V14.01,2013-03-05 00:27:00,
2013-03-04 19:30:00,28.7,23.9,29.90,NW,319,0.0,6.0,82,0.00,,---,0.00,0.00,VWS V14.01,2013-03-05 00:30:00,
2013-03-04 19:32:00,29.0,22.7,29.88,West,281,0.0,4.0,77,0.00,,---,0.00,0.00,VWS V14.01,2013-03-05 00:32:00,
2013-03-04 19:37:00,28.9,22.6,29.88,NNE,20,0.0,7.0,77,0.00,,---,0.00,0.00,VWS V14.01,2013-03-05 00:37:00,
2013-03-04 19:42:00,28.9,22.9,29.88,NW,311,0.0,7.0,78,0.00,,---,0.00,0.00,VWS V14.01,2013-03-05 00:42:00,
2013-03-04 19:47:00,28.9,22.9,29.89,North,5,0.0,7.0,78,0.00,,---,0.00,0.00,VWS V14.01,2013-03-05 00:47:00,
2013-03-04 19:52:00,28.9,22.9,29.89,WSW,256,1.0,7.0,78,0.00,,---,0.00,0.00,VWS V14.01,2013-03-05 00:52:00,
2013-03-04 19:57:00,28.9,23.2,29.89,North,351,1.0,7.0,79,0.00,,---,0.00,0.00,VWS V14.01,2013-03-05 00:57:00,
2013-03-04 20:00:00,28.1,24.2,29.92,SW,223,0.0,7.0,85,0.00,,---,0.00,0.00,VWS V14.01,2013-03-05 01:00:00,
2013-03-04 20:02:00,28.8,23.1,29.89,SSW,194,0.0,4.0,79,0.00,,---,0.00,0.00,VWS V14.01,2013-03-05 01:02:00,
2013-03-04 20:07:00,28.8,23.1,29.89,SSW,212,0.0,6.0,79,0.00,,---,0.00,0.00,VWS V14.01,2013-03-05 01:07:00,
2013-03-04 20:12:00,28.8,23.1,29.89,NW,309,0.0,6.0,79,0.00,,---,0.00,0.00,VWS V14.01,2013-03-05 01:12:00,
2013-03-04 20:17:00,28.8,23.4,29.90,WNW,292,3.0,6.0,80,0.00,,---,0.00,0.00,VWS V14.01,2013-03-05 01:17:00,
2013-03-04 20:22:00,28.7,23.6,29.90,SE,140,0.0,6.0,81,0.00,,---,0.00,0.00,VWS V14.01,2013-03-05 01:22:00,
2013-03-04 20:27:00,28.7,23.6,29.90,NW,319,0.0,6.0,81,0.00,,---,0.00,0.00,VWS V14.01,2013-03-05 01:27:00,
2013-03-04 20:30:00,28.0,24.1,29.92,SSE,154,0.0,5.0,85,0.00,,---,0.00,0.00,VWS V14.01,2013-03-05 01:30:00,
2013-03-04 20:32:00,28.6,23.8,29.90,West,271,0.0,7.0,82,0.00,,---,0.00,0.00,VWS V14.01,2013-03-05 01:32:00,
2013-03-04 20:37:00,28.6,23.8,29.91,NE,34,0.0,7.0,82,0.00,,---,0.00,0.00,VWS V14.01,2013-03-05 01:37:00,
2013-03-04 20:42:00,28.4,23.9,29.91,NNW,348,2.0,7.0,83,0.00,,---,0.00,0.00,VWS V14.01,2013-03-05 01:42:00,
2013-03-04 20:47:00,28.3,24.1,29.91,SSW,210,1.0,7.0,84,0.00,,---,0.00,0.00,VWS V14.01,2013-03-05 01:47:00,
2013-03-04 20:52:00,28.2,24.3,29.91,SE,133,2.0,7.0,85,0.00,,---,0.00,0.00,VWS V14.01,2013-03-05 01:52:00,
2013-03-04 20:57:00,28.1,24.2,29.92,SSW,200,2.0,7.0,85,0.00,,---,0.00,0.00,VWS V14.01,2013-03-05 01:57:00,
2013-03-04 21:00:00,28.0,24.1,29.92,NNE,19,0.0,7.0,85,0.00,,---,0.00,0.00,VWS V14.01,2013-03-05 02:00:00,
2013-03-04 21:02:00,28.0,24.1,29.92,West,279,2.0,2.0,85,0.00,,---,0.00,0.00,VWS V14.01,2013-03-05 02:02:00,
2013-03-04 21:07:00,28.0,26.0,29.92,South,173,0.0,4.0,92,0.00,,---,0.00,0.00,VWS V14.01,2013-03-05 02:07:00,
2013-03-04 21:12:00,28.0,24.1,29.92,WSW,257,2.0,4.0,85,0.00,,---,0.00,0.00,VWS V14.01,2013-03-05 02:12:00,
2013-03-04 21:17:00,28.0,24.1,29.92,ENE,62,0.0,5.0,85,0.00,,---,0.00,0.00,VWS V14.01,2013-03-05 02:17:00,
2013-03-04 21:22:00,28.0,24.1,29.92,ENE,71,0.0,5.0,85,0.00,,---,0.00,0.00,VWS V14.01,2013-03-05 02:22:00,
2013-03-04 21:27:00,28.0,24.1,29.92,ENE,71,0.0,5.0,85,0.00,,---,0.00,0.00,VWS V14.01,2013-03-05 02:27:00,
2013-03-04 21:30:00,28.0,24.1,29.92,NW,316,2.0,8.0,85,0.00,,---,0.00,0.00,VWS V14.01,2013-03-05 02:30:00,
2013-03-04 21:32:00,28.0,24.1,29.92,SW,235,3.0,3.0,85,0.00,,---,0.00,0.00,VWS V14.01,2013-03-05 02:32:00,
2013-03-04 21:37:00,28.0,24.1,29.92,NE,35,0.0,7.0,85,0.00,,---,0.00,0.00,VWS V14.01,2013-03-05 02:37:00,
2013-03-04 21:42:00,28.0,24.1,29.92,NE,36,1.0,7.0,85,0.00,,---,0.00,0.00,VWS V14.01,2013-03-05 02:42:00,
2013-03-04 21:47:00,28.0,24.1,29.92,NNW,338,0.0,7.0,85,0.00,,---,0.00,0.00,VWS V14.01,2013-03-05 02:47:00,
2013-03-04 21:52:00,28.0,24.1,29.92,West,277,0.0,7.0,85,0.00,,---,0.00,0.00,VWS V14.01,2013-03-05 02:52:00,
2013-03-04 21:57:00,28.0,24.1,29.92,SSW,198,0.0,7.0,85,0.00,,---,0.00,0.00,VWS V14.01,2013-03-05 02:57:00,
2013-03-04 22:00:00,28.1,23.9,29.92,East,80,0.0,8.0,84,0.00,,---,0.00,0.00,VWS V14.01,2013-03-05 03:00:00,
2013-03-04 22:02:00,28.0,24.1,29.92,NNE,19,0.0,1.0,85,0.00,,---,0.00,0.00,VWS V14.01,2013-03-05 03:02:00,
2013-03-04 22:07:00,28.0,24.1,29.92,North,350,0.0,3.0,85,0.00,,---,0.00,0.00,VWS V14.01,2013-03-05 03:07:00,
2013-03-04 22:12:00,28.0,24.1,29.92,West,269,0.0,3.0,85,0.00,,---,0.00,0.00,VWS V14.01,2013-03-05 03:12:00,
2013-03-04 22:17:00,28.0,24.1,29.92,SSW,211,4.0,4.0,85,0.00,,---,0.00,0.00,VWS V14.01,2013-03-05 03:17:00,
2013-03-04 22:22:00,28.0,24.1,29.92,East,101,2.0,8.0,85,0.00,,---,0.00,0.00,VWS V14.01,2013-03-05 03:22:00,
2013-03-04 22:27:00,28.0,24.1,29.92,NW,317,0.0,8.0,85,0.00,,---,0.00,0.00,VWS V14.01,2013-03-05 03:27:00,
2013-03-04 22:30:00,28.1,24.2,29.93,ESE,119,0.0,5.0,85,0.00,,---,0.00,0.00,VWS V14.01,2013-03-05 03:30:00,
2013-03-04 22:32:00,28.0,24.1,29.92,NW,316,0.0,2.0,85,0.00,,---,0.00,0.00,VWS V14.01,2013-03-05 03:32:00,
2013-03-04 22:37:00,28.0,24.1,29.92,NW,316,0.0,2.0,85,0.00,,---,0.00,0.00,VWS V14.01,2013-03-05 03:37:00,
2013-03-04 22:42:00,28.0,23.8,29.92,ENE,66,0.0,4.0,84,0.00,,---,0.00,0.00,VWS V14.01,2013-03-05 03:42:00,
2013-03-04 22:47:00,28.0,24.1,29.93,WNW,285,3.0,4.0,85,0.00,,---,0.00,0.00,VWS V14.01,2013-03-05 03:47:00,
2013-03-04 22:52:00,28.1,23.9,29.92,North,360,0.0,8.0,84,0.00,,---,0.00,0.00,VWS V14.01,2013-03-05 03:52:00,
2013-03-04 22:57:00,28.1,24.2,29.92,SSW,213,1.0,8.0,85,0.00,,---,0.00,0.00,VWS V14.01,2013-03-05 03:57:00,
2013-03-04 23:00:00,28.2,24.3,29.93,North,360,0.0,5.0,85,0.00,,---,0.00,0.00,VWS V14.01,2013-03-05 04:00:00,
2013-03-04 23:02:00,28.1,23.9,29.92,East,80,0.0,1.0,84,0.00,,---,0.00,0.00,VWS V14.01,2013-03-05 04:02:00,
2013-03-04 23:07:00,28.1,23.9,29.92,East,80,0.0,2.0,84,0.00,,---,0.00,0.00,VWS V14.01,2013-03-05 04:07:00,
2013-03-04 23:12:00,28.1,23.9,29.93,East,80,0.0,2.0,84,0.00,,---,0.00,0.00,VWS V14.01,2013-03-05 04:12:00,
2013-03-04 23:17:00,28.1,23.9,29.93,NNE,30,3.0,5.0,84,0.00,,---,0.00,0.00,VWS V14.01,2013-03-05 04:17:00,
2013-03-04 23:22:00,28.1,23.9,29.93,ESE,119,0.0,5.0,84,0.00,,---,0.00,0.00,VWS V14.01,2013-03-05 04:22:00,
2013-03-04 23:27:00,28.1,24.2,29.93,ESE,119,0.0,5.0,85,0.00,,---,0.00,0.00,VWS V14.01,2013-03-05 04:27:00,
2013-03-04 23:30:00,28.1,24.2,29.94,NE,55,0.0,6.0,85,0.00,,---,0.00,0.00,VWS V14.01,2013-03-05 04:30:00,
2013-03-04 23:32:00,28.1,23.9,29.93,ESE,119,0.0,0.0,84,0.00,,---,0.00,0.00,VWS V14.01,2013-03-05 04:32:00,
2013-03-04 23:37:00,28.1,24.2,29.93,East,80,0.0,2.0,85,0.00,,---,0.00,0.00,VWS V14.01,2013-03-05 04:37:00,
2013-03-04 23:42:00,28.1,23.9,29.93,SE,138,0.0,4.0,84,0.00,,---,0.00,0.00,VWS V14.01,2013-03-05 04:42:00,
2013-03-04 23:47:00,28.1,24.2,29.93,North,5,0.0,4.0,85,0.00,,---,0.00,0.00,VWS V14.01,2013-03-05 04:47:00,
2013-03-04 23:52:00,28.2,24.3,29.93,NNW,333,1.0,5.0,85,0.00,,---,0.00,0.00,VWS V14.01,2013-03-05 04:52:00,
2013-03-04 23:57:00,28.2,24.3,29.93,North,360,2.0,5.0,85,0.00,,---,0.00,0.00,VWS V14.01,2013-03-05 04:57:00,